Terminal Aerodrome Forecast
Issued by NWS Columbia, SC

Home | Current Version | Previous Version | Text Only | Print | Product List | Glossary On
Versions: 1 2 3 4 5 6 7 8 9 10 11 12 13 14 15 16 17 18 19 20 21 22 23 24 25 26 27 28 29 30 31 32 33 34 35 36 37 38 39 40 41 42
762
FTAK31 PAJN 090405 AAB
TAFAGS
TAF AMD
PAGS 090405Z 0904/0924 15010G20KT 6SM -RA BR SCT005 SCT010 OVC040
     FM091200 20010G20KT 6SM -RA BR SCT010 OVC035
     FM091700 24012KT P6SM VCSH SCT010 SCT025 BKN040
      AMD LTD TO CLD VIS AND WIND=

USA.gov is the U.S. government's official web portal to all federal, state and local government web resources and services.